Vorticity
8 8 8 8 7 6 5 5 5 5 7 8 8 9 8 4 10 14 7 8 9 4 3 10 12 5 3 1 -1 5 5 -0 3 3 1 2 5 10 12 10 7 7 8 7 8 10 9 7 -0 6 23 28 39 26 17 15 -1 5 4 3 8 4 2 5 10 6 7 8 9 11 8 8 7 8 7 4 3 -0 -2 -1 0 3 4 3 3 2 1 1 2 3 2 3 3 2 2 2 2
9 9 9 8 7 7 6 8 9 8 9 11 13 11 10 11 12 12 13 22 18 11 13 12 12 9 6 4 2 3 3 -0 0 -0 -1 -1 -1 3 9 9 7 6 7 8 6 8 10 12 9 11 11 2 8 3 -2 1 5 17 2 -7 6 10 10 7 4 3 5 5 6 8 5 5 2 4 5 5 5 3 3 3 3 4 5 5 5 5 4 3 3 2 2 2 3 3 2 3 3
9 9 8 7 7 8 10 13 14 15 15 11 13 9 9 15 12 14 21 27 24 17 16 14 13 11 9 13 12 4 1 2 2 1 1 2 2 1 3 4 6 7 6 9 6 7 8 9 13 12 16 6 -8 3 7 -4 8 23 11 2 0 -0 1 -1 -0 1 2 2 2 1 -2 -2 -3 -1 2 6 7 7 8 8 7 5 5 6 6 6 6 5 5 4 3 2 2 2 2 2 2
9 9 7 8 9 10 12 15 15 17 17 10 12 11 5 9 10 15 16 16 20 14 15 19 10 8 12 13 12 9 5 3 1 0 1 3 5 1 -1 0 1 5 6 6 6 9 10 9 12 10 18 6 -19 2 16 8 13 9 2 -4 -10 -2 6 6 6 3 4 6 7 7 8 10 9 10 9 9 9 9 9 9 9 8 7 7 6 6 6 6 7 7 6 4 3 3 3 2 2
9 9 7 8 10 10 11 13 15 11 10 7 4 9 7 7 7 8 9 14 23 19 23 26 11 8 9 5 6 10 10 7 3 2 2 -0 2 3 3 2 -1 3 5 4 5 9 11 9 7 9 17 -3 -32 -22 -4 8 4 -13 -13 -7 -2 5 4 5 8 8 7 6 7 8 11 15 16 13 11 10 10 10 9 8 7 7 7 6 6 5 6 6 6 7 8 8 7 6 5 5 4
8 8 7 8 8 10 11 10 12 7 6 6 1 7 9 6 3 3 4 10 21 24 28 27 18 14 9 7 7 7 11 10 7 4 4 3 1 2 2 4 3 2 5 6 6 6 8 11 8 6 12 4 -15 -22 -8 3 -17 -29 -15 -5 -2 -5 -6 -3 0 6 8 5 5 6 4 7 9 8 8 7 7 7 6 6 6 6 6 6 6 5 5 5 5 5 6 8 9 10 10 9 8
8 8 7 8 8 7 9 9 10 9 7 4 2 6 4 2 3 2 2 4 11 20 30 28 21 19 11 7 10 9 9 9 8 6 4 5 4 3 1 3 5 3 3 4 3 4 4 5 7 7 8 5 -1 -14 -18 -16 -22 -12 -3 -9 -12 -12 -7 -9 -13 -6 3 6 5 3 1 0 2 3 4 5 5 5 4 4 4 5 5 4 5 4 2 1 2 2 2 3 4 5 7 9 11
8 7 7 6 6 6 9 10 11 11 9 5 4 5 3 5 5 3 4 3 6 15 33 33 17 18 16 9 9 10 12 14 9 8 8 5 3 4 3 0 3 5 4 2 2 8 11 10 7 6 9 5 2 -4 -11 -14 -13 -2 -5 -15 -10 -3 2 -0 -6 -7 0 7 7 3 -0 -2 -1 2 3 3 3 4 5 5 5 7 7 8 8 9 8 6 6 6 5 5 4 3 3 4 7
8 7 8 7 5 5 7 10 13 12 11 9 5 6 6 8 7 6 6 4 6 15 34 39 20 12 16 12 9 7 7 16 17 12 10 7 6 4 5 3 1 4 6 2 -1 4 8 12 12 8 7 3 2 -0 -4 -6 -11 -9 -7 -7 -0 4 -0 1 4 4 5 4 3 4 2 -1 -2 2 3 2 3 4 4 1 3 5 6 7 7 9 11 11 8 8 8 8 9 7 6 4 4
7 7 7 7 6 4 6 9 13 15 14 12 7 7 6 6 6 6 9 8 8 17 30 35 28 12 9 13 12 11 1 0 15 19 13 8 6 4 5 6 5 6 9 5 -2 -4 -3 1 6 10 9 3 5 7 0 -1 -2 -2 -0 1 2 3 2 4 9 9 5 -1 -2 2 3 2 -1 1 4 5 6 4 2 -0 3 8 5 5 5 7 10 11 8 6 5 5 6 7 9 8 6
6 8 6 6 7 5 6 5 10 15 13 11 11 10 9 9 8 7 11 11 7 16 27 23 25 19 10 14 15 18 16 4 6 9 9 12 13 11 6 5 6 5 6 8 6 3 -1 2 5 8 9 2 2 5 1 -1 2 2 -1 1 2 4 7 6 8 9 8 7 3 3 3 2 -1 -1 -0 3 5 4 3 3 5 6 1 1 6 9 10 8 8 9 9 6 7 10 11 11 11
7 7 6 6 7 7 7 3 6 9 7 7 7 7 9 10 8 11 12 11 6 10 31 27 14 14 13 16 16 13 15 12 5 -3 -1 7 12 16 12 7 8 9 10 5 4 14 8 -3 -3 6 13 13 10 8 7 4 2 5 4 3 3 6 8 8 11 14 14 15 12 8 5 4 4 1 -2 -2 -1 2 5 6 5 2 -2 -1 6 10 9 7 8 12 13 11 10 12 11 10 9
8 7 6 6 6 8 8 4 5 5 3 4 3 4 6 10 10 13 12 10 9 8 33 39 9 4 18 16 12 11 6 8 11 6 6 7 6 13 18 18 12 8 16 10 -5 4 15 6 -7 -7 -3 0 6 9 15 18 8 3 4 3 2 2 6 11 9 5 4 8 7 6 5 7 11 10 10 8 8 9 6 4 4 2 1 3 5 6 9 10 11 11 11 10 7 6 6 7 5
9 8 6 6 6 8 8 6 8 6 6 6 5 7 7 12 12 11 12 7 10 11 27 44 17 -5 13 17 6 11 10 4 9 12 7 9 15 12 10 15 12 1 1 8 0 -9 3 15 15 9 -7 -18 -15 -6 7 19 17 9 11 13 11 8 5 3 -3 -6 -4 -0 4 8 8 9 10 11 12 11 9 6 -0 -0 3 3 3 6 6 7 11 8 4 5 5 7 6 5 5 5 4
11 9 6 6 7 8 8 7 8 7 9 9 9 10 10 13 10 9 12 6 8 13 21 39 30 -5 -1 23 13 5 13 6 7 23 19 9 13 9 3 4 7 10 6 7 8 1 -4 -4 7 19 16 6 -6 -4 4 0 -2 -3 2 8 7 6 3 -2 -4 -4 -1 2 7 7 7 6 7 9 6 4 1 -2 -1 1 4 5 7 10 9 9 10 3 -1 2 3 4 3 1 0 1 1
13 12 9 8 7 8 9 8 6 6 7 8 10 12 12 12 8 8 8 8 8 15 23 30 33 5 -13 16 21 5 11 12 1 9 20 16 9 2 4 8 8 10 10 10 7 4 4 -6 -10 -2 8 16 6 5 10 -1 -6 -7 -5 0 -3 -5 -3 1 2 4 7 6 3 0 3 5 4 5 3 3 5 8 11 7 6 8 9 11 9 7 5 1 0 4 4 2 1 1 -0 0 1
12 13 12 10 7 8 9 8 6 6 6 5 10 14 14 10 7 7 6 10 12 15 26 28 29 16 -8 -2 15 15 8 8 8 -4 -7 8 15 6 -1 4 15 20 16 20 18 5 2 1 -2 -3 -4 1 -1 -4 2 2 2 0 -1 1 1 3 3 5 5 3 5 5 9 12 10 5 3 4 2 4 8 10 13 9 7 6 5 6 4 4 3 2 3 5 4 2 2 2 2 1 2
8 11 13 12 9 8 7 8 7 7 6 3 10 17 13 9 6 6 9 12 13 17 25 25 20 20 12 -9 -7 23 19 -9 8 29 8 -0 12 18 14 -1 -4 13 18 12 18 20 12 7 6 5 1 2 3 0 1 1 0 2 1 -1 -1 -1 -1 3 10 15 14 11 12 12 6 2 4 5 2 2 2 1 4 6 6 4 3 3 1 2 2 2 3 3 2 2 1 2 3 4 6
5 7 11 13 11 10 8 6 7 8 7 3 10 19 12 7 6 7 13 12 13 20 24 25 18 15 22 5 -17 5 30 -5 -19 23 25 2 4 10 16 3 -15 -6 -1 -13 -6 13 14 10 11 10 6 3 3 4 7 4 1 3 0 7 14 10 13 19 22 23 17 11 7 3 2 1 -0 -2 -2 -1 -1 1 3 3 4 4 3 2 2 4 4 4 4 3 3 4 4 6 7 8 9
4 4 7 12 12 11 9 7 6 7 9 7 9 19 13 5 7 9 14 13 14 19 19 21 20 17 19 18 -1 -17 12 14 -15 8 19 4 7 4 6 4 -3 -2 -4 -7 -3 6 9 7 8 9 10 9 9 10 13 15 14 15 13 20 23 16 21 18 8 6 1 1 2 -0 -1 -2 -3 -3 0 2 0 4 5 3 4 5 5 4 5 5 4 4 4 4 5 6 7 9 10 9 9
3 4 4 9 11 9 10 9 7 6 8 8 10 19 13 5 10 11 13 13 12 14 14 18 18 21 20 16 17 -1 -2 -2 -14 10 17 7 15 13 16 13 7 8 2 2 3 3 8 10 7 4 6 7 12 10 9 8 -2 11 28 17 -1 -2 6 -1 -5 0 -1 -2 -6 -6 -3 -0 2 3 5 3 2 4 3 3 5 5 5 6 7 7 6 5 5 6 7 7 8 8 8 7 6
4 4 3 7 9 7 11 11 8 6 7 8 11 17 15 11 13 9 13 13 8 11 13 19 15 16 21 15 17 19 14 -3 -15 3 5 -1 9 13 21 16 5 10 8 1 -0 1 4 7 6 12 16 2 -2 0 2 1 -5 10 20 -5 -19 -8 2 3 3 2 2 4 0 0 3 5 6 7 8 7 8 9 9 10 10 10 9 9 9 9 9 9 9 9 9 9 8 7 6 5 4
5 4 3 7 6 6 10 10 9 7 5 7 10 16 17 15 13 10 14 12 7 12 12 14 15 11 15 16 15 17 22 16 -0 6 12 -5 -15 -8 14 23 8 2 8 7 6 8 7 7 -1 0 14 7 -1 3 3 4 5 4 -10 -19 -5 7 14 23 22 14 11 11 9 7 5 6 8 8 8 9 11 11 11 12 11 11 11 10 9 8 7 7 7 7 6 6 5 4 4 3 3
7 4 5 8 5 6 9 9 10 9 5 5 7 14 16 10 12 17 15 11 8 10 10 11 15 14 12 12 14 15 18 18 1 2 21 12 -10 -12 4 28 28 14 15 18 19 21 20 26 20 4 1 -0 0 9 15 14 10 2 -11 -5 11 11 12 17 20 23 22 18 17 15 14 14 12 11 9 9 10 9 8 7 6 6 6 5 6 5 5 5 5 4 4 3 3 3 2 3 3
5 4 7 7 4 6 7 8 10 9 7 6 6 13 16 9 12 18 11 9 9 8 9 11 13 14 14 11 11 14 16 16 5 -2 9 14 11 5 -8 -5 8 10 9 6 3 3 3 14 26 27 22 16 9 6 13 18 20 22 18 15 12 7 3 -1 1 8 12 14 14 14 14 12 9 8 6 4 4 4 4 4 4 4 4 5 5 4 4 4 4 3 3 3 3 3 3 4 3
4 7 7 5 5 7 5 6 9 10 9 7 5 9 15 13 10 9 8 8 8 9 9 9 11 12 12 10 8 12 15 13 9 5 5 7 9 9 -1 -8 -2 5 5 0 -5 -7 -5 -0 5 13 18 19 16 4 -2 2 8 13 14 11 7 5 3 1 2 2 4 6 4 5 5 5 4 3 2 3 3 3 4 3 4 4 4 5 4 4 4 3 4 4 5 5 6 6 6 7 6
5 7 6 5 6 6 5 6 8 9 9 8 6 7 10 14 12 5 1 4 4 7 9 7 8 10 11 11 9 10 14 11 8 5 3 4 4 5 7 6 7 9 8 9 9 7 6 8 8 8 8 10 13 9 3 3 4 4 6 7 6 5 6 7 7 6 7 6 4 5 4 4 5 4 4 5 5 5 5 5 5 4 4 4 4 4 3 4 5 6 6 7 7 8 8 8 8
6 5 5 7 5 6 7 6 7 9 9 8 7 6 6 10 15 8 1 0 1 3 6 6 4 2 4 9 9 9 10 9 9 9 7 6 6 5 5 5 7 9 10 10 10 10 9 9 10 9 10 9 9 9 8 8 8 8 8 7 7 7 7 7 8 8 7 7 7 6 5 6 6 6 6 5 5 6 5 5 4 4 4 4 3 3 4 5 6 7 7 7 6 7 6 7 7
6 4 5 5 4 6 7 6 8 9 7 8 8 6 6 9 11 10 8 6 3 2 -1 3 9 9 9 12 11 8 7 5 6 8 6 3 3 3 2 3 6 7 7 8 6 7 8 8 8 6 6 6 6 7 7 7 6 7 6 6 6 5 5 6 6 7 7 8 8 7 7 6 5 6 5 5 5 5 5 4 4 4 4 4 4 5 6 6 6 7 6 6 6 5 5 5 5
5 4 5 4 5 6 7 8 7 8 8 7 9 8 8 9 7 7 10 10 8 7 5 6 8 6 8 13 14 11 7 3 1 2 1 -0 1 3 4 5 8 9 7 7 7 6 6 6 6 6 7 6 7 7 7 7 6 5 5 5 5 5 6 5 5 5 6 7 6 7 6 5 5 4 4 4 4 4 4 4 4 5 5 6 6 7 7 6 6 5 5 5 5 4 4 4 4
4 4 6 4 4 5 8 9 6 8 9 6 7 9 9 9 8 7 7 8 7 9 11 12 7 -2 -2 5 10 13 16 14 8 2 -0 0 2 4 7 7 7 8 6 4 3 4 5 5 5 5 4 5 5 4 4 5 4 4 4 4 4 4 4 4 5 5 4 5 6 7 7 7 8 7 7 8 7 7 7 7 8 7 7 7 7 7 6 6 6 5 5 5 5 5 4 4 3
4 3 5 5 4 4 7 9 8 8 10 8 8 8 10 12 10 8 6 6 6 7 9 11 11 7 4 4 3 4 9 17 18 12 7 5 5 5 4 4 3 2 1 1 1 3 3 4 5 5 5 5 4 4 4 4 5 5 5 6 6 6 6 6 6 6 7 7 7 8 8 9 9 9 10 9 9 10 10 10 10 9 9 8 7 7 6 6 6 6 6 5 5 5 5 5 6
4 4 6 6 5 5 6 8 9 9 11 10 8 7 9 10 10 8 7 6 6 8 9 8 9 9 9 8 7 5 2 4 7 7 6 4 3 2 1 1 2 3 4 5 5 6 5 5 6 7 8 8 8 8 8 8 9 8 8 9 8 8 9 9 8 9 9 8 8 8 8 8 8 8 7 7 8 7 7 8 7 8 8 7 7 7 7 6 6 6 7 7 7 7 8 9 9
5 6 6 5 5 6 4 5 9 11 11 8 5 7 9 8 8 8 8 8 7 8 8 8 8 8 9 9 9 10 10 9 8 6 5 4 3 2 3 4 6 8 10 11 9 8 7 6 7 7 8 9 9 9 9 9 8 9 9 9 9 9 8 8 8 8 7 7 7 7 6 6 6 6 5 5 5 5 6 6 6 7 7 7 7 7 7 7 7 7 8 9 10 10 10 11 11
6 6 5 6 6 6 4 3 9 12 11 9 6 8 9 10 10 9 8 8 8 8 8 8 9 7 7 7 7 7 8 10 11 11 11 11 11 9 8 8 7 7 7 9 10 10 9 9 7 6 6 6 6 7 7 7 7 7 7 7 7 7 7 7 7 7 7 7 6 6 6 6 6 6 6 6 6 6 7 7 7 7 7 8 8 8 8 8 9 9 9 10 11 11 11 10 10
6 5 6 6 5 8 7 5 10 11 10 10 10 9 9 10 12 10 9 7 8 9 8 8 8 8 8 7 7 7 7 7 7 7 8 8 8 9 9 8 6 4 3 3 3 4 5 5 6 6 5 5 5 5 5 5 6 6 6 6 7 7 8 8 8 8 8 7 7 7 7 7 7 7 7 7 8 8 8 9 9 9 9 8 8 8 8 8 9 9 10 10 10 10 11 10 9
5 5 5 5 6 11 9 6 10 10 8 10 10 10 9 9 10 10 10 10 11 9 8 8 8 9 9 8 9 9 9 9 9 8 7 7 6 6 6 6 5 5 4 3 2 2 3 3 4 5 5 5 5 5 5 5 6 6 7 7 7 8 8 7 8 8 8 8 7 7 7 7 7 7 8 8 9 9 9 10 10 10 10 9 9 8 8 9 9 9 9 9 8 8 8 7 7
5 5 5 8 11 12 8 7 12 10 8 9 9 9 9 9 9 10 11 11 10 7 7 8 8 8 8 9 9 9 10 10 8 8 8 8 8 8 7 7 8 8 7 7 6 6 6 6 5 6 6 7 8 8 7 7 7 7 6 6 6 6 5 5 6 5 6 6 6 6 6 7 7 8 8 8 9 9 9 10 10 9 9 8 8 8 8 8 8 8 8 8 8 7 7 6 6
5 6 8 12 13 10 9 9 10 9 8 9 7 6 8 8 9 10 8 6 8 8 9 9 8 8 8 8 8 8 8 8 6 6 7 7 7 7 7 8 8 8 8 8 9 8 8 7 6 6 6 5 4 4 4 4 4 5 4 4 4 4 4 5 5 6 6 6 6 6 7 7 7 7 8 8 8 8 8 8 7 7 7 7 7 7 8 8 8 8 8 7 7 7 8 7 7
8 9 10 14 12 9 8 6 8 8 7 7 5 6 9 8 8 9 6 6 8 8 8 8 8 8 8 8 8 8 7 6 5 6 6 6 6 6 6 6 6 6 6 6 5 5 4 5 5 4 4 4 4 3 3 3 3 4 4 5 5 5 6 7 7 7 6 7 7 7 7 7 7 7 7 7 7 7 7 6 5 6 6 6 7 8 8 8 8 8 8 8 6 6 7 7 7
11 11 12 13 11 9 6 4 7 7 6 6 5 5 10 11 8 9 9 9 10 8 8 9 8 7 7 7 7 7 8 7 8 9 9 9 9 9 8 8 7 7 7 7 7 8 7 8 7 7 7 7 8 7 7 8 7 8 8 8 9 9 9 8 8 8 8 8 8 7 7 7 7 7 7 6 6 5 5 5 5 6 7 8 8 8 8 8 8 7 7 7 7 7 6 7 7
10 10 12 10 8 7 6 5 5 6 6 8 6 4 9 13 10 8 9 9 10 11 11 11 11 10 10 10 11 10 10 10 9 9 9 9 9 9 9 9 9 10 10 10 9 9 9 9 9 9 9 9 9 9 9 9 9 9 9 9 9 9 9 8 8 8 7 7 7 7 7 7 7 6 6 6 5 5 5 6 7 8 8 8 8 8 8 8 7 8 8 8 8 8 8 8 8
8 9 10 7 6 6 5 6 5 6 6 7 7 6 9 13 11 10 9 7 8 10 11 10 11 13 13 12 12 12 12 11 11 10 9 9 9 9 10 9 9 10 10 10 9 10 9 10 10 9 10 10 10 10 9 9 9 9 8 8 8 7 8 8 7 7 6 6 6 6 6 6 7 6 6 6 6 7 8 8 8 8 8 8 8 8 8 8 8 8 8 8 8 9 9 9 9
7 9 7 5 6 6 6 6 6 6 6 6 7 7 9 10 8 9 9 8 9 9 9 10 9 8 8 8 8 8 9 9 10 10 10 10 10 9 9 9 10 9 8 8 9 9 9 9 9 9 9 9 9 9 9 8 8 8 8 8 8 8 7 7 7 7 7 6 6 7 7 8 8 8 7 7 8 9 8 9 8 8 8 8 8 8 8 8 8 8 9 9 10 10 10 10 10
7 8 6 6 7 6 7 6 6 7 5 6 8 8 9 7 5 7 8 9 10 9 9 9 9 8 7 6 6 5 5 6 6 7 7 8 8 8 8 9 9 9 9 10 9 8 8 8 8 8 8 8 8 8 8 8 9 9 9 9 8 8 7 7 7 7 7 7 7 8 8 8 8 8 8 8 8 8 8 8 8 8 8 8 8 8 8 8 9 9 10 10 10 10 9 9 9
8 8 7 6 6 6 7 6 6 7 6 8 8 7 8 7 4 5 6 7 7 8 9 7 6 7 7 6 5 5 5 5 5 5 5 5 5 4 5 6 6 6 7 8 8 8 8 8 8 8 8 8 8 8 9 9 9 8 8 7 7 6 6 6 6 6 7 7 8 8 8 8 8 8 8 9 9 9 9 9 8 8 8 8 8 8 9 9 9 10 9 9 8 8 9 8 8
8 8 7 6 6 6 6 5 6 7 8 7 6 7 8 6 4 6 8 9 10 12 12 10 9 9 8 8 7 6 6 6 6 5 4 4 4 4 4 4 4 4 5 5 5 5 6 6 7 7 7 7 7 7 7 6 6 5 4 4 4 4 5 6 7 8 9 9 9 9 9 9 8 8 9 9 8 8 8 8 8 8 8 8 8 8 9 9 9 9 8 8 7 7 7 7 7
9 9 8 8 7 7 8 8 9 9 8 6 6 9 9 8 8 10 12 10 8 10 10 10 11 11 10 11 11 10 10 9 8 7 7 6 6 7 6 6 6 6 5 5 5 5 5 5 5 5 5 5 5 5 4 3 3 2 3 3 4 6 7 9 9 10 10 10 10 10 9 9 8 8 8 8 8 8 8 8 7 7 8 8 8 8 8 8 8 7 7 7 7 6 6 6 6
10 10 9 9 10 10 10 9 9 9 9 8 8 9 10 10 7 7 8 6 2 3 5 5 6 7 8 8 9 10 10 10 9 9 9 8 9 9 8 8 8 8 7 7 7 7 7 6 6 6 5 5 4 4 4 3 3 3 4 5 7 8 8 9 9 10 10 10 9 8 8 8 8 7 8 8 8 7 7 7 7 8 8 9 9 9 8 7 7 6 7 7 6 6 6 6 6
10 10 10 10 11 10 9 9 8 7 8 8 6 5 6 6 3 2 4 4 3 3 4 4 4 5 6 6 7 8 8 8 9 8 8 8 8 7 7 7 7 7 7 7 7 7 7 7 6 7 6 6 5 4 4 5 5 6 6 7 8 8 8 9 9 9 9 8 8 7 7 8 8 8 8 8 8 8 8 8 9 9 9 9 8 7 7 6 7 7 7 6 6 6 5 5 5
10 10 9 8 8 8 6 6 6 5 5 5 4 4 4 4 4 3 4 5 4 6 5 5 5 6 8 9 8 8 8 7 8 8 8 8 7 7 7 7 7 7 8 8 8 7 7 6 7 7 6 6 6 6 6 6 6 7 7 8 8 8 9 9 9 8 8 7 7 8 8 8 8 8 8 8 8 8 9 9 9 9 8 8 7 7 7 7 7 6 6 5 5 5 5 6 6
8 7 7 7 9 8 5 5 6 6 5 4 5 6 5 5 6 4 5 6 5 5 5 5 6 7 9 9 8 8 8 8 8 8 8 8 8 8 8 8 8 8 8 8 8 7 7 7 7 7 7 7 7 7 7 7 7 8 8 9 9 9 9 8 8 8 8 8 8 8 8 8 8 8 8 8 8 9 9 9 8 7 7 7 7 7 7 6 6 5 5 6 6 6 6 6 6
5 5 5 5 5 5 5 5 6 6 5 4 5 6 4 4 5 5 5 5 5 5 4 4 5 6 6 6 6 6 6 7 7 6 7 8 8 8 8 8 8 9 8 8 8 7 8 8 8 8 8 8 8 8 8 8 9 10 10 10 9 9 9 8 8 8 9 9 9 8 8 8 8 8 8 9 10 10 9 8 8 8 8 7 6 6 6 5 5 5 6 6 6 6 7 7 7
4 5 5 6 6 6 7 6 6 7 4 3 4 4 4 5 5 5 5 6 6 5 5 6 6 6 6 6 6 6 6 6 7 7 7 8 8 8 8 8 9 9 8 8 8 8 9 9 9 9 9 9 9 9 9 10 10 10 10 10 10 9 9 8 8 8 8 8 8 8 8 8 8 9 10 10 9 9 8 8 8 8 7 6 5 5 5 5 5 6 6 6 6 6 6 7 7
5 5 6 8 7 8 8 6 6 6 4 5 5 3 4 5 6 7 6 7 6 6 7 8 6 5 5 6 8 7 7 7 7 8 9 10 9 9 8 9 9 9 8 9 9 9 9 9 8 8 9 9 10 10 10 10 10 10 11 11 11 10 9 9 9 9 8 8 8 8 9 9 10 10 9 9 8 8 8 8 7 6 5 5 5 5 5 6 6 6 6 6 6 6 6 6 7
6 6 7 8 7 8 8 4 5 9 6 5 6 6 5 5 5 7 7 7 8 9 10 8 7 8 9 9 8 8 7 7 7 6 7 8 9 8 9 10 9 9 9 10 10 9 9 9 9 10 9 10 11 11 11 11 11 12 12 11 11 10 9 9 8 8 8 8 9 10 11 11 11 10 9 8 8 7 6 5 5 5 5 6 6 6 6 7 7 6 6 5 6 6 6 7 7
6 5 6 5 4 6 6 2 7 11 6 5 8 7 6 6 5 7 8 8 10 10 9 9 10 10 10 7 6 6 7 7 8 7 6 6 6 7 9 10 11 12 13 13 13 13 13 13 13 13 12 12 13 13 13 13 13 12 10 10 9 9 9 9 9 9 9 10 12 12 12 11 10 9 8 8 6 5 4 4 5 6 7 7 7 7 7 6 5 6 5 5 6 7 7 7 7
6 6 5 4 4 5 4 2 6 8 5 7 9 4 3 9 10 9 11 10 11 11 9 9 8 6 6 5 5 7 9 9 10 9 9 8 8 10 12 12 11 11 12 13 14 14 15 16 15 14 14 13 13 13 13 12 11 10 10 10 11 11 11 10 10 11 12 13 13 12 10 9 9 9 8 6 5 4 5 5 7 7 7 7 7 6 6 5 4 5 5 6 7 7 7 6 7
Height
5850 5849 5849 5849 5848 5848 5848 5847 5847 5847 5846 5845 5845 5845 5845 5846 5846 5845 5845 5847 5844 5844 5850 5853 5851 5852 5853 5854 5855 5856 5857 5858 5858 5858 5859 5861 5863 5864 5865 5866 5866 5866 5867 5869 5871 5871 5871 5872 5873 5876 5877 5870 5865 5861 5859 5860 5861 5860 5860 5860 5860 5860 5862 5863 5864 5865 5865 5865 5866 5867 5868 5868 5868 5869 5870 5870 5870 5871 5871 5870 5870 5869 5869 5869 5869 5869 5869 5869 5869 5869 5868 5868 5868 5868 5868 5868 5868
5848 5847 5847 5847 5847 5846 5846 5845 5844 5844 5844 5843 5842 5841 5840 5841 5842 5840 5841 5842 5839 5842 5847 5848 5848 5848 5849 5850 5852 5853 5853 5854 5855 5855 5856 5858 5860 5861 5862 5863 5863 5863 5864 5867 5869 5869 5869 5869 5870 5873 5873 5867 5863 5858 5857 5859 5859 5860 5859 5860 5859 5859 5860 5862 5863 5863 5863 5864 5864 5865 5866 5866 5866 5866 5867 5867 5868 5868 5868 5867 5867 5866 5866 5866 5866 5866 5866 5866 5866 5866 5866 5866 5865 5865 5865 5865 5865
5845 5845 5845 5845 5845 5844 5844 5843 5842 5841 5841 5840 5839 5838 5839 5838 5838 5836 5837 5838 5836 5839 5842 5842 5843 5844 5845 5846 5847 5849 5850 5851 5851 5851 5853 5855 5857 5858 5859 5860 5860 5861 5861 5865 5867 5866 5866 5866 5868 5870 5869 5865 5862 5859 5859 5859 5858 5859 5859 5859 5859 5859 5860 5860 5861 5861 5862 5862 5862 5863 5863 5863 5863 5864 5864 5865 5865 5865 5865 5864 5864 5864 5863 5863 5863 5863 5863 5863 5863 5863 5863 5863 5863 5862 5862 5862 5862
5843 5843 5843 5842 5842 5841 5841 5840 5839 5839 5838 5838 5835 5835 5837 5837 5836 5834 5833 5833 5832 5833 5836 5837 5838 5838 5840 5841 5843 5844 5846 5847 5848 5849 5851 5852 5855 5856 5856 5857 5858 5858 5859 5862 5864 5863 5863 5864 5865 5866 5865 5863 5860 5859 5858 5856 5856 5857 5857 5857 5857 5857 5857 5858 5859 5859 5859 5860 5860 5861 5861 5861 5861 5861 5861 5861 5861 5861 5861 5861 5861 5861 5861 5861 5861 5860 5860 5860 5860 5860 5860 5860 5860 5859 5859 5859 5858
5841 5841 5840 5840 5839 5839 5838 5837 5837 5836 5835 5835 5832 5832 5834 5834 5834 5832 5830 5830 5829 5829 5831 5832 5833 5835 5836 5837 5838 5839 5841 5843 5844 5846 5847 5849 5853 5853 5854 5855 5855 5856 5856 5859 5861 5860 5860 5861 5862 5862 5862 5860 5857 5857 5857 5855 5854 5854 5854 5855 5855 5855 5855 5856 5856 5856 5857 5857 5858 5858 5858 5858 5858 5858 5858 5858 5858 5858 5858 5858 5858 5858 5858 5858 5858 5858 5858 5857 5857 5857 5857 5856 5856 5856 5856 5856 5855
5839 5839 5838 5837 5836 5836 5836 5835 5835 5834 5834 5833 5830 5830 5832 5830 5830 5829 5828 5828 5827 5826 5827 5828 5829 5831 5832 5833 5834 5835 5837 5839 5840 5842 5844 5847 5849 5850 5851 5852 5853 5854 5854 5856 5857 5857 5857 5857 5858 5859 5858 5857 5854 5853 5854 5853 5851 5851 5851 5852 5853 5853 5853 5853 5853 5854 5854 5855 5855 5855 5855 5855 5855 5855 5855 5855 5855 5855 5855 5855 5855 5856 5856 5856 5856 5855 5855 5854 5854 5854 5853 5853 5853 5853 5853 5853 5852
5837 5837 5836 5835 5834 5834 5833 5832 5832 5832 5832 5830 5828 5829 5829 5828 5827 5826 5825 5825 5824 5823 5823 5823 5825 5826 5827 5829 5830 5832 5834 5835 5836 5838 5840 5843 5845 5846 5848 5849 5850 5851 5852 5853 5854 5854 5854 5854 5855 5855 5855 5854 5852 5850 5850 5850 5849 5848 5848 5848 5849 5849 5849 5850 5850 5851 5852 5852 5852 5852 5853 5852 5853 5853 5853 5852 5852 5852 5852 5852 5853 5853 5853 5853 5853 5853 5852 5851 5851 5851 5850 5850 5850 5850 5850 5850 5849
5836 5835 5834 5834 5833 5832 5831 5830 5830 5829 5830 5829 5828 5828 5827 5825 5824 5823 5822 5822 5821 5820 5820 5820 5821 5822 5823 5826 5827 5829 5832 5833 5834 5835 5837 5839 5841 5842 5844 5845 5847 5848 5849 5851 5851 5851 5850 5850 5851 5851 5851 5851 5849 5848 5847 5846 5846 5846 5845 5845 5845 5846 5847 5848 5848 5849 5849 5849 5849 5849 5850 5850 5850 5850 5850 5849 5849 5849 5850 5850 5851 5851 5851 5850 5850 5849 5849 5848 5848 5847 5847 5847 5847 5847 5847 5846 5846
5834 5833 5832 5832 5831 5830 5829 5828 5828 5827 5827 5828 5826 5825 5824 5823 5822 5821 5820 5819 5819 5817 5816 5817 5818 5819 5820 5823 5826 5827 5829 5830 5831 5832 5833 5836 5837 5839 5840 5842 5843 5844 5846 5847 5847 5847 5846 5846 5847 5847 5848 5848 5847 5846 5845 5843 5843 5843 5843 5843 5842 5842 5843 5845 5845 5846 5846 5846 5846 5846 5847 5847 5847 5847 5847 5846 5846 5846 5847 5848 5847 5847 5847 5847 5846 5846 5845 5845 5844 5844 5844 5844 5844 5843 5843 5843 5843
5833 5832 5831 5830 5829 5829 5828 5827 5826 5825 5825 5825 5824 5823 5822 5820 5819 5818 5818 5817 5816 5814 5813 5813 5814 5815 5818 5820 5823 5825 5827 5828 5828 5828 5830 5832 5834 5836 5837 5838 5840 5841 5842 5843 5843 5844 5844 5843 5844 5844 5845 5845 5844 5843 5842 5841 5840 5840 5840 5840 5839 5839 5840 5841 5842 5842 5842 5842 5843 5843 5844 5844 5844 5844 5844 5844 5843 5844 5844 5844 5844 5843 5843 5843 5843 5842 5842 5841 5841 5840 5840 5840 5840 5840 5839 5839 5839
5831 5831 5829 5828 5828 5827 5826 5825 5824 5824 5823 5822 5822 5820 5819 5818 5816 5815 5816 5815 5813 5811 5810 5811 5812 5813 5816 5816 5819 5822 5824 5827 5826 5825 5827 5829 5831 5833 5834 5835 5836 5837 5839 5840 5840 5840 5841 5840 5840 5841 5841 5841 5841 5841 5840 5839 5838 5838 5838 5837 5837 5836 5837 5838 5838 5838 5838 5838 5839 5840 5840 5840 5841 5841 5841 5840 5840 5841 5841 5841 5840 5840 5839 5839 5839 5838 5838 5838 5837 5837 5836 5836 5836 5836 5835 5835 5835
5830 5829 5828 5827 5826 5825 5824 5823 5822 5822 5821 5820 5819 5818 5817 5815 5814 5813 5813 5811 5811 5810 5808 5808 5809 5812 5814 5813 5816 5819 5820 5823 5824 5824 5826 5827 5828 5829 5830 5832 5834 5834 5835 5837 5836 5835 5836 5837 5837 5837 5838 5838 5838 5838 5837 5837 5836 5836 5835 5835 5834 5834 5835 5836 5835 5835 5834 5835 5836 5836 5836 5836 5836 5836 5837 5837 5837 5837 5837 5837 5837 5836 5836 5835 5835 5834 5834 5834 5833 5833 5832 5832 5832 5831 5831 5831 5831
5828 5827 5826 5825 5824 5823 5822 5820 5820 5820 5819 5818 5817 5816 5814 5813 5811 5810 5810 5808 5808 5807 5806 5806 5806 5809 5811 5811 5814 5816 5817 5819 5821 5823 5824 5824 5825 5826 5825 5827 5831 5830 5830 5832 5832 5832 5833 5834 5834 5834 5834 5833 5833 5834 5834 5833 5833 5833 5833 5832 5832 5832 5832 5833 5832 5831 5831 5831 5832 5832 5832 5832 5832 5832 5832 5832 5833 5833 5833 5833 5833 5833 5832 5831 5831 5830 5830 5830 5829 5829 5828 5828 5828 5827 5827 5827 5827
5827 5826 5825 5824 5823 5822 5820 5819 5818 5817 5816 5815 5814 5813 5811 5810 5809 5808 5807 5806 5805 5804 5803 5803 5803 5805 5808 5809 5811 5813 5816 5816 5818 5820 5821 5820 5822 5823 5822 5822 5825 5825 5826 5828 5828 5829 5830 5830 5831 5831 5830 5829 5829 5830 5830 5830 5830 5830 5830 5830 5829 5829 5829 5829 5829 5828 5828 5828 5828 5828 5828 5828 5828 5828 5828 5828 5828 5829 5829 5829 5829 5828 5828 5828 5827 5827 5826 5826 5825 5825 5825 5824 5824 5824 5823 5823 5823
5826 5825 5824 5822 5821 5820 5819 5817 5816 5814 5814 5813 5812 5810 5808 5807 5806 5805 5805 5804 5803 5801 5801 5800 5800 5802 5804 5806 5808 5810 5813 5814 5815 5817 5817 5817 5818 5820 5819 5818 5820 5822 5822 5824 5825 5825 5826 5826 5827 5827 5827 5826 5826 5826 5827 5827 5826 5826 5827 5826 5826 5826 5826 5826 5826 5826 5825 5825 5825 5824 5824 5824 5824 5824 5824 5824 5824 5824 5824 5824 5824 5824 5824 5824 5823 5823 5822 5822 5822 5821 5821 5820 5820 5820 5819 5819 5818
5824 5823 5822 5821 5820 5819 5817 5815 5814 5812 5811 5810 5809 5808 5806 5804 5803 5803 5802 5801 5800 5799 5798 5797 5798 5799 5801 5803 5804 5807 5810 5811 5813 5813 5813 5814 5815 5816 5816 5816 5817 5819 5819 5820 5821 5822 5822 5822 5823 5824 5823 5823 5823 5823 5824 5824 5823 5823 5823 5823 5822 5823 5823 5823 5823 5823 5822 5822 5822 5821 5821 5821 5821 5821 5821 5821 5820 5820 5820 5820 5820 5820 5819 5819 5819 5819 5818 5818 5818 5817 5817 5816 5816 5815 5815 5814 5814
5823 5821 5820 5819 5818 5817 5815 5814 5812 5811 5809 5808 5807 5805 5803 5802 5801 5800 5800 5799 5798 5797 5796 5795 5795 5796 5798 5800 5802 5804 5806 5808 5809 5810 5811 5811 5812 5812 5813 5814 5814 5815 5816 5818 5819 5819 5819 5819 5819 5820 5819 5819 5820 5820 5820 5820 5820 5820 5819 5819 5819 5819 5819 5820 5819 5819 5818 5818 5818 5818 5818 5817 5817 5817 5817 5817 5817 5816 5816 5816 5816 5816 5815 5815 5815 5815 5814 5814 5813 5813 5812 5812 5811 5810 5810 5809 5809
5821 5820 5819 5818 5816 5815 5814 5812 5810 5809 5808 5806 5804 5803 5801 5800 5799 5798 5797 5797 5796 5795 5794 5793 5793 5794 5796 5797 5799 5800 5802 5803 5804 5805 5807 5808 5807 5808 5809 5810 5809 5810 5811 5812 5814 5815 5815 5815 5816 5816 5816 5816 5816 5816 5816 5816 5816 5816 5816 5816 5815 5815 5816 5816 5816 5815 5815 5814 5814 5815 5814 5814 5813 5813 5813 5813 5813 5813 5812 5812 5812 5812 5811 5811 5810 5810 5810 5809 5809 5808 5807 5807 5806 5805 5805 5804 5804
5820 5819 5818 5816 5815 5814 5812 5810 5809 5807 5806 5804 5802 5801 5800 5799 5798 5797 5795 5794 5794 5793 5792 5792 5791 5792 5793 5794 5795 5797 5798 5799 5800 5801 5803 5803 5803 5804 5805 5805 5805 5806 5807 5806 5807 5810 5811 5812 5812 5812 5812 5813 5813 5813 5813 5813 5813 5812 5812 5812 5812 5812 5812 5812 5811 5811 5811 5810 5810 5810 5810 5810 5809 5809 5809 5808 5808 5808 5808 5808 5808 5807 5807 5806 5806 5805 5805 5804 5804 5803 5803 5802 5801 5801 5800 5799 5799
5819 5818 5816 5815 5813 5812 5810 5809 5807 5806 5804 5802 5801 5799 5798 5797 5796 5795 5793 5792 5792 5791 5790 5790 5790 5790 5791 5792 5792 5794 5796 5796 5798 5799 5799 5800 5800 5801 5802 5802 5803 5804 5805 5804 5805 5807 5808 5809 5809 5809 5810 5810 5810 5810 5810 5810 5809 5809 5808 5808 5808 5809 5809 5808 5807 5807 5807 5806 5806 5806 5806 5805 5805 5805 5804 5804 5803 5803 5803 5803 5802 5802 5802 5801 5801 5800 5800 5799 5798 5798 5797 5796 5796 5795 5795 5794 5793
5817 5816 5815 5813 5812 5810 5809 5807 5805 5804 5803 5801 5799 5798 5796 5795 5794 5793 5792 5791 5790 5789 5788 5788 5788 5788 5790 5790 5790 5792 5794 5795 5796 5796 5796 5797 5797 5799 5799 5800 5801 5802 5803 5803 5803 5804 5806 5806 5806 5807 5807 5806 5806 5806 5807 5807 5807 5806 5805 5805 5805 5805 5805 5804 5803 5803 5803 5802 5802 5801 5801 5801 5800 5800 5800 5799 5798 5798 5798 5797 5797 5797 5796 5796 5796 5795 5794 5794 5793 5792 5792 5791 5790 5789 5789 5788 5788
5815 5814 5813 5812 5810 5809 5807 5806 5804 5802 5801 5799 5798 5796 5795 5793 5792 5791 5790 5789 5788 5788 5787 5787 5787 5787 5788 5788 5789 5790 5792 5793 5794 5795 5795 5794 5795 5796 5797 5797 5798 5799 5800 5800 5800 5801 5803 5803 5803 5803 5803 5802 5802 5802 5803 5802 5803 5803 5802 5801 5801 5800 5800 5799 5799 5799 5798 5798 5797 5797 5796 5796 5796 5795 5795 5794 5794 5793 5793 5792 5792 5791 5791 5791 5790 5790 5789 5788 5788 5787 5786 5785 5784 5784 5783 5783 5782
5813 5812 5811 5810 5808 5807 5805 5804 5802 5801 5799 5798 5796 5795 5793 5792 5791 5790 5789 5788 5787 5787 5787 5786 5786 5786 5786 5787 5788 5788 5790 5791 5793 5793 5793 5793 5792 5793 5794 5795 5795 5796 5797 5797 5797 5798 5799 5800 5800 5799 5798 5798 5798 5798 5798 5799 5799 5798 5797 5796 5796 5795 5795 5795 5794 5794 5793 5793 5793 5792 5792 5791 5791 5791 5790 5790 5789 5789 5788 5788 5787 5786 5786 5786 5785 5785 5784 5783 5782 5781 5780 5779 5778 5778 5777 5776 5776
5811 5810 5809 5808 5807 5805 5804 5802 5801 5799 5798 5797 5795 5794 5792 5791 5790 5789 5788 5787 5786 5786 5786 5785 5785 5785 5784 5785 5787 5787 5788 5789 5791 5792 5792 5791 5791 5792 5792 5792 5793 5794 5795 5795 5795 5795 5795 5796 5796 5795 5795 5795 5795 5795 5794 5795 5795 5794 5793 5792 5791 5791 5791 5790 5790 5790 5789 5788 5788 5788 5787 5787 5786 5786 5785 5785 5784 5784 5783 5783 5782 5781 5781 5780 5780 5779 5779 5778 5777 5775 5774 5773 5772 5772 5771 5770 5770
5809 5808 5807 5806 5805 5803 5802 5801 5799 5798 5796 5795 5794 5792 5791 5790 5789 5788 5787 5786 5785 5785 5785 5784 5784 5784 5783 5784 5785 5786 5787 5787 5788 5789 5790 5790 5790 5790 5790 5790 5792 5792 5793 5792 5792 5792 5792 5792 5793 5792 5792 5792 5792 5792 5791 5791 5790 5790 5789 5788 5788 5788 5787 5787 5786 5786 5785 5785 5784 5783 5783 5782 5781 5780 5780 5779 5779 5778 5778 5777 5777 5776 5776 5775 5775 5774 5773 5772 5771 5770 5768 5767 5766 5765 5765 5764 5763
5808 5807 5805 5804 5803 5802 5800 5799 5797 5796 5794 5793 5792 5791 5790 5789 5788 5787 5786 5785 5784 5784 5784 5784 5783 5783 5782 5782 5782 5784 5785 5785 5786 5786 5787 5788 5787 5787 5788 5788 5789 5790 5790 5790 5790 5789 5789 5789 5789 5789 5789 5788 5788 5788 5787 5787 5786 5786 5785 5785 5784 5784 5783 5782 5782 5782 5781 5781 5780 5779 5778 5777 5776 5775 5775 5774 5773 5773 5772 5772 5771 5770 5770 5769 5769 5768 5767 5766 5764 5763 5762 5761 5760 5759 5758 5758 5757
5805 5804 5803 5802 5801 5800 5798 5797 5795 5794 5792 5791 5790 5789 5788 5788 5787 5786 5785 5784 5783 5783 5782 5782 5782 5782 5781 5781 5780 5781 5782 5783 5783 5783 5784 5784 5784 5784 5785 5785 5786 5787 5787 5787 5786 5786 5786 5785 5785 5785 5785 5785 5784 5784 5783 5782 5782 5781 5781 5780 5780 5779 5778 5778 5777 5777 5777 5776 5775 5774 5773 5772 5771 5770 5770 5769 5768 5767 5767 5766 5765 5764 5764 5763 5762 5761 5760 5759 5758 5757 5756 5755 5754 5753 5752 5751 5750
5803 5802 5801 5800 5799 5798 5796 5795 5793 5792 5790 5789 5788 5787 5786 5786 5785 5784 5783 5783 5782 5782 5781 5781 5781 5780 5780 5780 5780 5779 5780 5780 5780 5780 5781 5781 5781 5781 5781 5782 5783 5784 5784 5783 5783 5783 5782 5782 5781 5781 5781 5780 5780 5780 5779 5778 5778 5777 5776 5776 5775 5774 5773 5773 5772 5772 5771 5771 5770 5769 5768 5767 5766 5765 5764 5763 5763 5762 5761 5760 5759 5758 5757 5756 5756 5754 5753 5752 5751 5750 5749 5749 5748 5747 5746 5745 5744
5801 5799 5798 5798 5797 5796 5794 5793 5791 5790 5788 5787 5786 5785 5784 5784 5783 5782 5781 5781 5780 5780 5780 5779 5779 5779 5778 5778 5778 5778 5777 5777 5777 5777 5778 5779 5779 5779 5778 5779 5779 5780 5780 5780 5780 5779 5779 5779 5778 5777 5777 5776 5776 5776 5775 5774 5773 5772 5772 5771 5770 5769 5768 5767 5767 5766 5766 5765 5764 5763 5762 5762 5761 5760 5759 5758 5757 5756 5755 5754 5753 5752 5751 5750 5749 5748 5746 5745 5744 5743 5742 5741 5741 5740 5739 5738 5737
5798 5797 5796 5795 5794 5794 5792 5790 5789 5788 5786 5784 5783 5782 5782 5782 5780 5779 5779 5778 5778 5778 5778 5777 5777 5777 5777 5776 5776 5776 5776 5775 5775 5775 5775 5775 5775 5776 5776 5776 5776 5776 5776 5776 5775 5775 5775 5774 5774 5773 5773 5772 5772 5771 5771 5770 5769 5768 5767 5766 5765 5764 5763 5762 5762 5761 5760 5759 5759 5758 5757 5756 5755 5754 5753 5752 5751 5750 5749 5748 5747 5746 5745 5744 5742 5741 5739 5738 5737 5736 5735 5734 5734 5733 5732 5731 5730
5795 5794 5793 5792 5791 5790 5790 5788 5786 5785 5784 5782 5781 5780 5779 5779 5778 5776 5776 5776 5775 5775 5775 5775 5775 5775 5775 5774 5774 5774 5774 5773 5773 5773 5772 5772 5772 5772 5773 5773 5772 5772 5771 5771 5770 5770 5770 5769 5769 5769 5768 5768 5767 5766 5766 5765 5764 5763 5762 5761 5760 5759 5758 5757 5756 5756 5755 5754 5753 5752 5752 5751 5750 5749 5748 5746 5745 5744 5743 5742 5740 5739 5738 5737 5735 5734 5732 5731 5730 5729 5728 5727 5726 5726 5725 5724 5723
5792 5791 5790 5789 5787 5787 5787 5787 5784 5783 5782 5779 5778 5777 5777 5777 5776 5774 5773 5773 5773 5773 5773 5773 5772 5772 5772 5772 5772 5772 5771 5771 5771 5771 5770 5770 5769 5769 5768 5768 5768 5768 5767 5767 5766 5765 5764 5764 5764 5764 5763 5763 5762 5761 5760 5759 5759 5758 5757 5756 5755 5753 5753 5752 5751 5750 5749 5748 5747 5746 5745 5745 5744 5742 5741 5740 5738 5737 5736 5735 5734 5733 5732 5730 5729 5727 5726 5724 5723 5721 5721 5720 5720 5719 5718 5717 5716
5788 5788 5787 5786 5784 5782 5782 5783 5782 5780 5779 5777 5775 5774 5775 5775 5774 5772 5771 5770 5770 5770 5770 5770 5769 5769 5769 5769 5769 5769 5768 5768 5768 5768 5767 5767 5766 5765 5764 5763 5763 5763 5762 5762 5761 5761 5759 5759 5758 5758 5758 5757 5756 5755 5754 5754 5753 5752 5751 5750 5749 5748 5747 5746 5745 5744 5743 5742 5741 5740 5739 5738 5737 5736 5734 5733 5732 5731 5730 5729 5728 5727 5725 5724 5722 5721 5719 5717 5716 5714 5713 5713 5712 5712 5711 5711 5709
5785 5783 5783 5783 5781 5779 5777 5777 5779 5778 5775 5775 5773 5772 5772 5772 5772 5770 5769 5768 5767 5767 5767 5767 5767 5766 5766 5766 5765 5765 5765 5765 5765 5764 5763 5762 5761 5760 5759 5758 5757 5757 5757 5757 5756 5755 5755 5754 5753 5752 5751 5751 5750 5749 5748 5747 5747 5746 5745 5744 5743 5742 5741 5740 5739 5738 5737 5736 5735 5734 5733 5732 5730 5729 5728 5727 5726 5725 5724 5723 5721 5720 5718 5717 5715 5714 5712 5710 5709 5707 5706 5705 5704 5704 5704 5703 5702
5782 5780 5779 5778 5778 5777 5773 5771 5773 5774 5771 5771 5770 5769 5769 5768 5769 5768 5766 5765 5764 5764 5764 5764 5763 5763 5762 5762 5761 5761 5761 5761 5761 5760 5759 5758 5756 5755 5754 5753 5752 5751 5751 5751 5751 5751 5750 5749 5748 5746 5746 5745 5744 5743 5743 5742 5741 5740 5739 5739 5738 5737 5736 5735 5734 5733 5732 5730 5729 5728 5726 5725 5724 5722 5721 5720 5719 5718 5717 5715 5714 5712 5711 5709 5708 5706 5704 5702 5701 5699 5698 5697 5695 5695 5695 5694 5693
5780 5779 5776 5775 5774 5773 5771 5767 5767 5768 5766 5767 5766 5765 5765 5765 5766 5766 5763 5762 5762 5761 5761 5760 5760 5759 5758 5758 5758 5757 5757 5757 5756 5754 5754 5753 5752 5751 5750 5749 5747 5746 5746 5745 5745 5745 5744 5744 5743 5742 5740 5739 5738 5737 5736 5736 5735 5735 5734 5733 5732 5731 5730 5729 5728 5727 5725 5724 5722 5721 5719 5718 5716 5715 5714 5713 5712 5711 5709 5708 5706 5704 5702 5701 5699 5697 5696 5694 5693 5691 5690 5689 5688 5686 5686 5686 5684
5777 5776 5775 5773 5771 5770 5769 5765 5765 5765 5762 5762 5763 5761 5761 5761 5762 5763 5762 5761 5759 5758 5757 5757 5756 5755 5754 5753 5753 5753 5753 5753 5752 5749 5749 5749 5748 5747 5746 5745 5744 5743 5741 5740 5738 5738 5737 5737 5736 5736 5735 5734 5733 5732 5730 5729 5728 5728 5727 5726 5725 5724 5723 5722 5720 5719 5717 5716 5714 5713 5711 5710 5709 5707 5706 5705 5704 5702 5701 5699 5697 5695 5694 5692 5690 5689 5687 5686 5685 5684 5682 5681 5680 5678 5677 5676 5675
5774 5773 5772 5770 5769 5768 5766 5763 5763 5763 5760 5759 5759 5757 5757 5758 5757 5759 5761 5759 5757 5755 5753 5753 5753 5751 5751 5750 5750 5749 5749 5749 5746 5744 5744 5744 5743 5743 5741 5740 5740 5739 5737 5736 5734 5733 5731 5730 5729 5728 5728 5727 5726 5725 5724 5723 5722 5721 5720 5718 5717 5716 5714 5713 5711 5710 5709 5707 5706 5704 5702 5701 5700 5699 5697 5696 5695 5693 5692 5690 5688 5686 5685 5683 5682 5681 5680 5678 5677 5676 5674 5672 5670 5669 5667 5667 5666
5770 5769 5768 5767 5766 5764 5762 5760 5760 5759 5757 5756 5755 5753 5753 5755 5754 5754 5757 5756 5753 5751 5750 5749 5748 5748 5748 5747 5746 5746 5745 5744 5741 5740 5740 5740 5739 5738 5736 5736 5735 5734 5732 5731 5731 5729 5728 5726 5724 5723 5721 5720 5719 5718 5717 5716 5715 5714 5712 5711 5709 5708 5706 5705 5703 5702 5700 5699 5697 5696 5694 5693 5692 5690 5689 5688 5687 5685 5683 5681 5680 5678 5676 5675 5674 5673 5672 5670 5668 5667 5666 5664 5662 5659 5657 5656 5655
5767 5766 5764 5764 5763 5761 5758 5757 5757 5756 5755 5753 5752 5750 5750 5752 5751 5750 5751 5752 5750 5748 5746 5744 5744 5744 5744 5743 5742 5741 5740 5739 5737 5737 5737 5735 5734 5733 5732 5731 5730 5729 5728 5727 5726 5725 5724 5722 5721 5719 5717 5716 5714 5713 5711 5710 5708 5707 5706 5704 5703 5701 5699 5698 5697 5695 5694 5692 5691 5689 5688 5687 5685 5684 5683 5681 5680 5678 5676 5674 5672 5670 5669 5668 5667 5665 5663 5662 5660 5658 5656 5655 5653 5651 5648 5647 5645
5764 5762 5761 5761 5759 5757 5755 5753 5752 5753 5752 5750 5747 5745 5746 5749 5749 5747 5747 5748 5746 5743 5741 5740 5740 5739 5739 5738 5738 5737 5736 5734 5733 5733 5732 5731 5730 5729 5728 5727 5725 5724 5723 5722 5721 5720 5719 5717 5716 5715 5714 5712 5710 5709 5707 5705 5703 5702 5700 5699 5697 5696 5694 5693 5692 5690 5689 5687 5685 5684 5682 5681 5679 5678 5677 5675 5673 5670 5668 5666 5665 5663 5662 5661 5659 5657 5655 5653 5651 5649 5647 5645 5643 5642 5639 5637 5635
5760 5759 5758 5757 5756 5754 5752 5750 5748 5747 5748 5747 5744 5741 5742 5746 5745 5744 5744 5744 5741 5739 5738 5737 5735 5734 5734 5734 5733 5733 5731 5730 5728 5728 5727 5725 5724 5724 5723 5721 5720 5719 5718 5717 5716 5714 5713 5712 5711 5710 5708 5707 5705 5704 5702 5700 5698 5697 5695 5693 5692 5691 5689 5688 5687 5685 5683 5682 5680 5678 5676 5675 5673 5672 5670 5668 5666 5663 5662 5660 5658 5656 5655 5653 5651 5649 5647 5645 5643 5640 5638 5636 5634 5632 5630 5628 5626
5756 5756 5755 5753 5751 5751 5749 5747 5745 5743 5743 5742 5740 5738 5737 5740 5741 5740 5740 5740 5738 5737 5736 5734 5732 5731 5730 5729 5728 5728 5726 5725 5724 5723 5721 5720 5719 5719 5717 5716 5715 5714 5713 5711 5710 5709 5708 5707 5705 5704 5702 5701 5700 5698 5696 5695 5693 5691 5690 5688 5687 5685 5684 5682 5681 5679 5677 5675 5674 5672 5670 5669 5667 5665 5663 5661 5659 5657 5655 5653 5651 5649 5647 5645 5643 5641 5639 5636 5634 5631 5629 5627 5625 5623 5621 5618 5616
5752 5753 5751 5749 5747 5746 5745 5744 5742 5740 5739 5736 5736 5736 5732 5733 5737 5736 5734 5735 5735 5734 5732 5730 5729 5727 5726 5724 5723 5722 5721 5720 5719 5717 5716 5715 5714 5713 5712 5710 5710 5708 5707 5706 5704 5703 5702 5701 5699 5698 5696 5695 5693 5692 5690 5689 5687 5686 5684 5682 5681 5679 5678 5676 5675 5673 5671 5669 5667 5666 5664 5662 5660 5658 5656 5654 5652 5650 5648 5646 5644 5641 5639 5637 5635 5633 5630 5628 5625 5623 5620 5618 5615 5613 5611 5608 5606
5749 5748 5747 5745 5744 5742 5741 5740 5738 5737 5734 5732 5734 5735 5728 5726 5730 5731 5730 5732 5732 5731 5729 5727 5725 5723 5721 5720 5718 5717 5716 5715 5714 5712 5711 5710 5709 5708 5706 5705 5704 5703 5701 5700 5699 5697 5696 5695 5693 5692 5690 5688 5687 5686 5684 5682 5681 5679 5678 5676 5675 5673 5671 5670 5668 5666 5665 5663 5661 5659 5657 5655 5653 5651 5649 5647 5645 5643 5640 5638 5636 5633 5631 5629 5627 5624 5622 5619 5617 5614 5611 5609 5606 5603 5601 5599 5596
5745 5744 5743 5742 5740 5739 5737 5735 5734 5733 5729 5729 5732 5730 5723 5721 5724 5725 5726 5727 5727 5727 5726 5723 5721 5719 5717 5716 5714 5713 5711 5710 5709 5708 5706 5705 5704 5702 5701 5700 5698 5697 5696 5695 5693 5692 5690 5689 5687 5685 5684 5682 5681 5679 5677 5676 5675 5673 5671 5670 5668 5667 5665 5663 5661 5659 5658 5656 5654 5652 5650 5648 5645 5643 5641 5639 5637 5635 5633 5630 5628 5625 5623 5621 5618 5616 5613 5611 5608 5605 5603 5600 5597 5594 5591 5589 5586
5740 5739 5739 5738 5736 5735 5733 5731 5730 5727 5725 5727 5728 5725 5721 5717 5718 5722 5722 5721 5720 5721 5720 5718 5716 5715 5713 5711 5710 5708 5707 5705 5704 5703 5702 5700 5699 5697 5696 5695 5693 5692 5690 5689 5688 5686 5685 5683 5681 5679 5678 5676 5675 5673 5671 5670 5668 5667 5665 5663 5661 5660 5658 5656 5654 5652 5650 5648 5646 5644 5642 5640 5638 5636 5634 5631 5629 5627 5625 5622 5620 5617 5615 5612 5610 5607 5605 5602 5599 5596 5593 5591 5588 5585 5582 5579 5576
5736 5735 5734 5732 5731 5730 5728 5727 5726 5722 5722 5724 5723 5721 5719 5714 5715 5718 5717 5715 5714 5714 5715 5713 5711 5710 5707 5706 5705 5703 5702 5701 5699 5698 5697 5695 5694 5692 5691 5690 5688 5686 5685 5683 5682 5680 5679 5677 5675 5674 5672 5671 5669 5667 5666 5664 5662 5660 5658 5657 5655 5653 5651 5649 5647 5645 5643 5641 5639 5637 5634 5632 5630 5628 5626 5623 5621 5619 5616 5614 5611 5609 5606 5604 5601 5599 5596 5593 5590 5587 5584 5582 5579 5576 5573 5570 5566
5732 5732 5730 5727 5726 5725 5723 5721 5720 5717 5717 5718 5717 5715 5713 5712 5713 5713 5710 5708 5707 5706 5708 5708 5706 5704 5702 5700 5699 5698 5697 5696 5694 5693 5691 5690 5688 5687 5685 5684 5682 5681 5679 5678 5676 5674 5673 5671 5669 5668 5666 5665 5663 5661 5659 5658 5656 5654 5652 5650 5648 5646 5644 5641 5640 5637 5635 5633 5631 5629 5626 5624 5622 5620 5618 5615 5613 5611 5608 5606 5604 5601 5598 5596 5593 5591 5588 5585 5582 5579 5576 5573 5570 5566 5563 5560 5557
5729 5728 5725 5724 5722 5720 5718 5717 5714 5712 5712 5712 5711 5708 5706 5708 5710 5708 5705 5704 5701 5699 5700 5700 5699 5697 5696 5695 5694 5692 5691 5690 5688 5687 5686 5684 5683 5681 5680 5678 5676 5674 5673 5671 5669 5668 5666 5664 5663 5661 5660 5658 5656 5654 5652 5650 5649 5647 5645 5642 5640 5638 5636 5634 5632 5630 5627 5625 5623 5620 5618 5616 5614 5612 5610 5608 5605 5603 5601 5598 5596 5593 5591 5588 5586 5583 5580 5577 5574 5571 5567 5564 5561 5558 5554 5551 5548
5725 5724 5721 5720 5719 5716 5714 5713 5710 5709 5709 5708 5705 5703 5702 5703 5704 5702 5700 5698 5696 5695 5694 5692 5691 5691 5690 5689 5688 5686 5685 5683 5681 5680 5679 5678 5676 5675 5673 5672 5670 5668 5666 5664 5663 5661 5659 5658 5656 5654 5652 5651 5649 5647 5645 5643 5641 5639 5637 5635 5633 5631 5629 5627 5624 5622 5620 5617 5615 5612 5610 5608 5606 5605 5602 5600 5598 5595 5593 5591 5589 5586 5584 5581 5578 5575 5572 5569 5566 5563 5559 5556 5552 5549 5546 5542 5539
5720 5719 5717 5716 5715 5712 5709 5708 5707 5704 5703 5703 5702 5701 5701 5699 5698 5698 5695 5693 5691 5689 5687 5686 5685 5685 5684 5683 5681 5679 5678 5676 5674 5673 5672 5670 5669 5668 5666 5664 5663 5661 5659 5658 5656 5654 5652 5651 5649 5647 5645 5643 5641 5639 5637 5635 5633 5631 5630 5627 5625 5623 5621 5619 5617 5614 5612 5609 5607 5605 5603 5601 5599 5597 5595 5593 5590 5588 5586 5583 5581 5579 5576 5574 5571 5568 5565 5562 5558 5555 5551 5548 5544 5540 5537 5533 5530
5715 5714 5712 5711 5710 5707 5704 5703 5703 5700 5695 5698 5698 5696 5697 5695 5693 5694 5691 5688 5686 5683 5681 5680 5679 5679 5678 5676 5674 5672 5671 5669 5667 5666 5664 5663 5661 5659 5658 5657 5655 5653 5652 5650 5648 5646 5645 5643 5641 5639 5638 5636 5634 5632 5630 5628 5626 5624 5622 5620 5618 5616 5614 5612 5609 5606 5604 5602 5600 5598 5596 5593 5591 5589 5587 5585 5583 5581 5579 5576 5574 5571 5569 5566 5563 5560 5557 5554 5550 5547 5543 5539 5535 5531 5526 5522 5519
5710 5708 5707 5706 5704 5702 5699 5697 5698 5694 5689 5692 5694 5691 5691 5690 5687 5688 5687 5682 5680 5677 5675 5673 5672 5671 5669 5667 5666 5665 5663 5662 5660 5659 5657 5655 5653 5651 5650 5649 5647 5645 5644 5642 5640 5639 5637 5635 5633 5632 5630 5628 5626 5624 5622 5620 5619 5617 5615 5613 5610 5608 5606 5604 5601 5599 5597 5595 5593 5591 5588 5586 5584 5582 5579 5577 5575 5573 5571 5569 5566 5564 5561 5558 5555 5552 5549 5546 5542 5538 5534 5529 5525 5521 5516 5511 5507
5705 5704 5703 5701 5698 5697 5694 5690 5690 5688 5682 5683 5688 5687 5686 5685 5682 5681 5681 5678 5675 5672 5669 5668 5666 5663 5660 5659 5658 5656 5655 5654 5652 5651 5649 5647 5645 5643 5642 5640 5639 5637 5635 5634 5632 5631 5629 5628 5626 5624 5622 5620 5619 5617 5615 5613 5611 5609 5607 5605 5603 5600 5598 5596 5594 5592 5590 5587 5585 5583 5581 5579 5577 5574 5572 5570 5568 5565 5563 5561 5559 5556 5553 5550 5547 5544 5541 5537 5533 5529 5525 5520 5515 5511 5506 5500 5495
5701 5699 5698 5696 5693 5691 5689 5686 5684 5681 5676 5675 5678 5680 5681 5681 5677 5675 5674 5672 5669 5666 5663 5661 5658 5655 5653 5651 5649 5648 5647 5645 5644 5643 5641 5639 5638 5636 5634 5632 5630 5629 5627 5626 5624 5623 5622 5620 5618 5617 5615 5613 5611 5610 5608 5606 5604 5602 5599 5597 5595 5593 5591 5589 5587 5584 5582 5580 5578 5576 5574 5572 5569 5567 5565 5563 5561 5558 5556 5554 5551 5548 5545 5541 5538 5535 5532 5528 5524 5520 5515 5510 5505 5500 5495 5489 5483
5696 5695 5693 5690 5688 5685 5682 5681 5680 5676 5671 5669 5667 5668 5675 5677 5671 5668 5668 5665 5662 5660 5656 5653 5651 5649 5646 5643 5642 5641 5639 5637 5635 5634 5633 5631 5629 5628 5626 5624 5622 5620 5619 5618 5617 5615 5614 5612 5611 5609 5607 5606 5604 5602 5601 5599 5597 5594 5592 5590 5588 5586 5584 5582 5580 5577 5575 5573 5571 5569 5567 5565 5562 5560 5558 5556 5553 5551 5549 5546 5543 5540 5536 5533 5530 5527 5523 5520 5515 5511 5506 5500 5495 5490 5484 5478 5472
5691 5690 5688 5684 5682 5679 5674 5673 5675 5671 5666 5665 5660 5656 5667 5674 5665 5661 5662 5657 5654 5652 5648 5646 5645 5642 5638 5636 5635 5633 5631 5629 5627 5626 5625 5623 5621 5619 5618 5616 5615 5613 5612 5610 5609 5608 5606 5605 5603 5602 5600 5598 5597 5595 5593 5591 5589 5587 5585 5583 5581 5579 5577 5575 5573 5571 5569 5566 5564 5562 5560 5558 5555 5553 5551 5549 5546 5544 5541 5538 5535 5531 5527 5524 5521 5518 5515 5511 5507 5502 5496 5490 5485 5479 5473 5467 5460